Вернуться в каталог

FENGYUN 1C DEB

АктивенSSO
NORAD 30401·DEBRIS·🇨🇳 China

Запущен May 10, 1999 с Taiyuan Satellite Launch Center

Loading…

Ближайшие Пролёты (ближайшие 24 часа)

TLE

СвежийSource: Space-Track

Эпоха: Sep 13, 2026, 23:22 UTC

1 30401U 99025ADQ 26256.97409997  .00000226  00000-0  10273-3 0  9994
2 30401  98.9093 145.1200 0107892  49.7639 311.2919 14.28189567 22333

Отслеживайте FENGYUN 1C DEB в реальном времени с AllMySat

Download on the App Store